contact:dominique.lefevre@mio.osupytheas.fr, maurice.libes@osupytheas.fr, didier.mallarino@osupytheas.fr
Project:EMSO http://www.emso-fr.org/EMSO-France
Depth: 2436.0 m
Title:EMSO Ligure Ouest : Data MII capteur MICROCAT
DateTime_Computer,Latitude,Longitude,Temperature,Conductivity,Pressure,DateTime_Instrument
DateTime_Computer,Latitude,Longitude,degC,S m-1,dbar,DateTime_Instrument
2024-01-04T00:00:33Z,42.805,6.029,13.3037,4.60116,2470.763,2024-1-04T02:03:04Z
2024-01-04T00:03:36Z,42.805,6.029,13.3036,4.60115,2470.763,2024-1-04T02:06:08Z
2024-01-04T00:06:39Z,42.805,6.029,13.3036,4.60114,2470.787,2024-1-04T02:09:11Z
2024-01-04T00:09:42Z,42.805,6.029,13.3039,4.60115,2470.763,2024-1-04T02:12:14Z
2024-01-04T00:12:45Z,42.805,6.029,13.3036,4.60119,2470.787,2024-1-04T02:15:17Z
2024-01-04T00:15:48Z,42.805,6.029,13.3035,4.60114,2470.787,2024-1-04T02:18:20Z
2024-01-04T00:18:51Z,42.805,6.029,13.3037,4.60114,2470.777,2024-1-04T02:21:23Z
2024-01-04T00:21:54Z,42.805,6.029,13.3038,4.60117,2470.787,2024-1-04T02:24:26Z
2024-01-04T00:24:58Z,42.805,6.029,13.3039,4.60117,2470.777,2024-1-04T02:27:29Z
2024-01-04T00:28:01Z,42.805,6.029,13.3036,4.60114,2470.763,2024-1-04T02:30:32Z
2024-01-04T00:31:04Z,42.805,6.029,13.3038,4.60114,2470.763,2024-1-04T02:33:35Z
2024-01-04T00:34:07Z,42.805,6.029,13.3037,4.60114,2470.787,2024-1-04T02:36:38Z
2024-01-04T00:37:10Z,42.805,6.029,13.3039,4.60115,2470.81,2024-1-04T02:39:41Z
2024-01-04T00:40:13Z,42.805,6.029,13.3039,4.60116,2470.787,2024-1-04T02:42:44Z
2024-01-04T00:43:16Z,42.805,6.029,13.3038,4.60116,2470.8,2024-1-04T02:45:48Z
2024-01-04T00:46:19Z,42.805,6.029,13.3037,4.60115,2470.787,2024-1-04T02:48:51Z
2024-01-04T00:49:22Z,42.805,6.029,13.3038,4.60117,2470.763,2024-1-04T02:51:54Z
2024-01-04T00:52:25Z,42.805,6.029,13.3039,4.60115,2470.787,2024-1-04T02:54:57Z
2024-01-04T00:55:28Z,42.805,6.029,13.3043,4.60115,2470.787,2024-1-04T02:58:00Z
2024-01-04T00:58:31Z,42.805,6.029,13.3036,4.60116,2470.787,2024-1-04T03:01:03Z
2024-01-04T01:01:34Z,42.805,6.029,13.3039,4.60116,2470.75,2024-1-04T03:04:06Z
2024-01-04T01:04:38Z,42.805,6.029,13.3039,4.60115,2470.763,2024-1-04T03:07:09Z
2024-01-04T01:07:41Z,42.805,6.029,13.3037,4.60116,2470.787,2024-1-04T03:10:12Z
2024-01-04T01:10:44Z,42.805,6.029,13.3041,4.60117,2470.763,2024-1-04T03:13:15Z
2024-01-04T01:13:47Z,42.805,6.029,13.3038,4.60119,2470.787,2024-1-04T03:16:18Z
2024-01-04T01:16:50Z,42.805,6.029,13.3037,4.60119,2470.787,2024-1-04T03:19:21Z
2024-01-04T01:19:53Z,42.805,6.029,13.3037,4.60119,2470.763,2024-1-04T03:22:24Z
2024-01-04T01:22:56Z,42.805,6.029,13.3041,4.60115,2470.787,2024-1-04T03:25:27Z
2024-01-04T01:25:59Z,42.805,6.029,13.3036,4.60117,2470.787,2024-1-04T03:28:31Z
2024-01-04T01:29:02Z,42.805,6.029,13.3039,4.60117,2470.763,2024-1-04T03:31:34Z
2024-01-04T01:32:05Z,42.805,6.029,13.3039,4.60118,2470.763,2024-1-04T03:34:37Z
2024-01-04T01:35:08Z,42.805,6.029,13.3039,4.60119,2470.787,2024-1-04T03:37:40Z
2024-01-04T01:38:11Z,42.805,6.029,13.3034,4.60117,2470.787,2024-1-04T03:40:43Z
2024-01-04T01:41:14Z,42.805,6.029,13.3033,4.60117,2470.763,2024-1-04T03:43:46Z
2024-01-04T01:44:18Z,42.805,6.029,13.3040,4.60117,2470.763,2024-1-04T03:46:49Z
2024-01-04T01:47:21Z,42.805,6.029,13.3039,4.60115,2470.763,2024-1-04T03:49:52Z
2024-01-04T01:50:24Z,42.805,6.029,13.3036,4.60115,2470.8,2024-1-04T03:52:55Z
2024-01-04T01:53:27Z,42.805,6.029,13.3037,4.60120,2470.763,2024-1-04T03:55:58Z
2024-01-04T01:56:30Z,42.805,6.029,13.3036,4.60117,2470.787,2024-1-04T03:59:01Z
2024-01-04T01:59:33Z,42.805,6.029,13.3040,4.60116,2470.777,2024-1-04T04:02:04Z
2024-01-04T02:02:36Z,42.805,6.029,13.3042,4.60116,2470.763,2024-1-04T04:05:07Z
2024-01-04T02:05:39Z,42.805,6.029,13.3041,4.60116,2470.763,2024-1-04T04:08:11Z
2024-01-04T02:08:42Z,42.805,6.029,13.3039,4.60117,2470.787,2024-1-04T04:11:14Z
2024-01-04T02:11:45Z,42.805,6.029,13.3038,4.60116,2470.787,2024-1-04T04:14:17Z
2024-01-04T02:14:48Z,42.805,6.029,13.3037,4.60117,2470.763,2024-1-04T04:17:20Z
2024-01-04T02:17:51Z,42.805,6.029,13.3039,4.60116,2470.787,2024-1-04T04:20:23Z
2024-01-04T02:20:54Z,42.805,6.029,13.3039,4.60117,2470.763,2024-1-04T04:23:26Z
2024-01-04T02:23:57Z,42.805,6.029,13.3039,4.60117,2470.787,2024-1-04T04:26:29Z
2024-01-04T02:27:01Z,42.805,6.029,13.3037,4.60117,2470.763,2024-1-04T04:29:32Z
2024-01-04T02:30:04Z,42.805,6.029,13.3042,4.60119,2470.777,2024-1-04T04:32:35Z
2024-01-04T02:33:07Z,42.805,6.029,13.3035,4.60117,2470.763,2024-1-04T04:35:38Z
2024-01-04T02:36:10Z,42.805,6.029,13.3036,4.60116,2470.787,2024-1-04T04:38:41Z
2024-01-04T02:39:13Z,42.805,6.029,13.3034,4.60116,2470.787,2024-1-04T04:41:44Z
2024-01-04T02:42:16Z,42.805,6.029,13.3036,4.60115,2470.74,2024-1-04T04:44:47Z
2024-01-04T02:45:19Z,42.805,6.029,13.3035,4.60115,2470.787,2024-1-04T04:47:51Z
2024-01-04T02:48:22Z,42.805,6.029,13.3034,4.60114,2470.74,2024-1-04T04:50:54Z
2024-01-04T02:51:25Z,42.805,6.029,13.3034,4.60114,2470.777,2024-1-04T04:53:57Z
2024-01-04T02:54:28Z,42.805,6.029,13.3041,4.60114,2470.763,2024-1-04T04:57:00Z
2024-01-04T02:57:31Z,42.805,6.029,13.3036,4.60114,2470.754,2024-1-04T05:00:03Z
2024-01-04T03:00:34Z,42.805,6.029,13.3036,4.60117,2470.777,2024-1-04T05:03:06Z
2024-01-04T03:03:37Z,42.805,6.029,13.3034,4.60116,2470.763,2024-1-04T05:06:09Z
2024-01-04T03:06:41Z,42.805,6.029,13.3039,4.60117,2470.74,2024-1-04T05:09:12Z
2024-01-04T03:09:44Z,42.805,6.029,13.3038,4.60117,2470.754,2024-1-04T05:12:15Z
2024-01-04T03:12:47Z,42.805,6.029,13.3039,4.60116,2470.74,2024-1-04T05:15:18Z
2024-01-04T03:15:50Z,42.805,6.029,13.3036,4.60116,2470.763,2024-1-04T05:18:21Z
2024-01-04T03:18:53Z,42.805,6.029,13.3036,4.60114,2470.763,2024-1-04T05:21:24Z
2024-01-04T03:21:56Z,42.805,6.029,13.3039,4.60114,2470.74,2024-1-04T05:24:27Z
2024-01-04T03:24:59Z,42.805,6.029,13.3038,4.60114,2470.74,2024-1-04T05:27:30Z
2024-01-04T03:28:02Z,42.805,6.029,13.3037,4.60115,2470.74,2024-1-04T05:30:34Z
2024-01-04T03:31:05Z,42.805,6.029,13.3039,4.60115,2470.717,2024-1-04T05:33:37Z
2024-01-04T03:34:08Z,42.805,6.029,13.3038,4.60115,2470.74,2024-1-04T05:36:40Z
2024-01-04T03:37:11Z,42.805,6.029,13.3035,4.60116,2470.763,2024-1-04T05:39:43Z
2024-01-04T03:40:14Z,42.805,6.029,13.3034,4.60114,2470.763,2024-1-04T05:42:46Z
2024-01-04T03:43:17Z,42.805,6.029,13.3034,4.60116,2470.754,2024-1-04T05:45:49Z
2024-01-04T03:46:21Z,42.805,6.029,13.3041,4.60116,2470.754,2024-1-04T05:48:52Z
2024-01-04T03:49:24Z,42.805,6.029,13.3036,4.60116,2470.763,2024-1-04T05:51:55Z
2024-01-04T03:52:27Z,42.805,6.029,13.3041,4.60116,2470.763,2024-1-04T05:54:58Z
2024-01-04T03:55:30Z,42.805,6.029,13.3039,4.60117,2470.763,2024-1-04T05:58:01Z
2024-01-04T03:58:33Z,42.805,6.029,13.3038,4.60117,2470.726,2024-1-04T06:01:04Z
2024-01-04T04:01:36Z,42.805,6.029,13.3037,4.60117,2470.754,2024-1-04T06:04:07Z
2024-01-04T04:04:39Z,42.805,6.029,13.3038,4.60117,2470.754,2024-1-04T06:07:10Z
2024-01-04T04:07:42Z,42.805,6.029,13.3037,4.60119,2470.74,2024-1-04T06:10:14Z
2024-01-04T04:10:45Z,42.805,6.029,13.3039,4.60118,2470.73,2024-1-04T06:13:17Z
2024-01-04T04:13:48Z,42.805,6.029,13.3043,4.60119,2470.763,2024-1-04T06:16:20Z
2024-01-04T04:16:51Z,42.805,6.029,13.3037,4.60119,2470.74,2024-1-04T06:19:23Z
2024-01-04T04:19:54Z,42.805,6.029,13.3039,4.60118,2470.74,2024-1-04T06:22:26Z
2024-01-04T04:22:57Z,42.805,6.029,13.3037,4.60117,2470.73,2024-1-04T06:25:29Z
2024-01-04T04:26:00Z,42.805,6.029,13.3041,4.60118,2470.74,2024-1-04T06:28:32Z
2024-01-04T04:29:04Z,42.805,6.029,13.3038,4.60121,2470.754,2024-1-04T06:31:35Z
2024-01-04T04:32:07Z,42.805,6.029,13.3038,4.60118,2470.74,2024-1-04T06:34:38Z
2024-01-04T04:35:10Z,42.805,6.029,13.3041,4.60119,2470.73,2024-1-04T06:37:41Z
2024-01-04T04:38:13Z,42.805,6.029,13.3041,4.60117,2470.74,2024-1-04T06:40:44Z
2024-01-04T04:41:16Z,42.805,6.029,13.3036,4.60117,2470.74,2024-1-04T06:43:47Z
2024-01-04T04:44:19Z,42.805,6.029,13.3041,4.60117,2470.74,2024-1-04T06:46:50Z
2024-01-04T04:47:22Z,42.805,6.029,13.3039,4.60119,2470.717,2024-1-04T06:49:54Z
2024-01-04T04:50:25Z,42.805,6.029,13.3040,4.60119,2470.73,2024-1-04T06:52:57Z
2024-01-04T04:53:28Z,42.805,6.029,13.3039,4.60117,2470.717,2024-1-04T06:56:00Z
2024-01-04T04:56:31Z,42.805,6.029,13.3035,4.60119,2470.73,2024-1-04T06:59:03Z
2024-01-04T04:59:34Z,42.805,6.029,13.3040,4.60117,2470.74,2024-1-04T07:02:06Z
2024-01-04T05:02:37Z,42.805,6.029,13.3041,4.60117,2470.74,2024-1-04T07:05:09Z
2024-01-04T05:05:40Z,42.805,6.029,13.3039,4.60119,2470.74,2024-1-04T07:08:12Z
2024-01-04T05:08:44Z,42.805,6.029,13.3041,4.60119,2470.74,2024-1-04T07:11:15Z
2024-01-04T05:11:47Z,42.805,6.029,13.3041,4.60119,2470.74,2024-1-04T07:14:18Z
2024-01-04T05:14:50Z,42.805,6.029,13.3039,4.60117,2470.74,2024-1-04T07:17:21Z
2024-01-04T05:17:53Z,42.805,6.029,13.3040,4.60117,2470.74,2024-1-04T07:20:24Z
2024-01-04T05:20:56Z,42.805,6.029,13.3041,4.60118,2470.74,2024-1-04T07:23:27Z
2024-01-04T05:23:59Z,42.805,6.029,13.3036,4.60119,2470.763,2024-1-04T07:26:30Z
2024-01-04T05:27:02Z,42.805,6.029,13.3039,4.60118,2470.777,2024-1-04T07:29:33Z
2024-01-04T05:30:06Z,42.805,6.029,13.3039,4.60119,2470.74,2024-1-04T07:32:37Z
2024-01-04T05:33:09Z,42.805,6.029,13.3044,4.60117,2470.754,2024-1-04T07:35:41Z
2024-01-04T05:36:12Z,42.805,6.029,13.3039,4.60119,2470.74,2024-1-04T07:38:44Z
2024-01-04T05:39:15Z,42.805,6.029,13.3038,4.60117,2470.74,2024-1-04T07:41:47Z
2024-01-04T05:42:19Z,42.805,6.029,13.3040,4.60117,2470.777,2024-1-04T07:44:50Z
2024-01-04T05:45:22Z,42.805,6.029,13.3040,4.60119,2470.717,2024-1-04T07:47:53Z
2024-01-04T05:48:25Z,42.805,6.029,13.3041,4.60117,2470.73,2024-1-04T07:50:56Z
2024-01-04T05:51:28Z,42.805,6.029,13.3039,4.60117,2470.763,2024-1-04T07:53:59Z
2024-01-04T05:54:31Z,42.805,6.029,13.3039,4.60117,2470.74,2024-1-04T07:57:02Z
2024-01-04T05:57:34Z,42.805,6.029,13.3036,4.60119,2470.717,2024-1-04T08:00:05Z
2024-01-04T06:00:37Z,42.805,6.029,13.3039,4.60117,2470.754,2024-1-04T08:03:08Z
2024-01-04T06:03:40Z,42.805,6.029,13.3043,4.60119,2470.763,2024-1-04T08:06:11Z
2024-01-04T06:06:43Z,42.805,6.029,13.3041,4.60119,2470.693,2024-1-04T08:09:15Z
2024-01-04T06:09:46Z,42.805,6.029,13.3041,4.60120,2470.74,2024-1-04T08:12:18Z
2024-01-04T06:12:49Z,42.805,6.029,13.3043,4.60119,2470.763,2024-1-04T08:15:21Z
2024-01-04T06:15:52Z,42.805,6.029,13.3043,4.60118,2470.74,2024-1-04T08:18:24Z
2024-01-04T06:18:55Z,42.805,6.029,13.3039,4.60119,2470.787,2024-1-04T08:21:27Z
2024-01-04T06:21:59Z,42.805,6.029,13.3039,4.60119,2470.717,2024-1-04T08:24:30Z
2024-01-04T06:25:02Z,42.805,6.029,13.3039,4.60121,2470.74,2024-1-04T08:27:33Z
2024-01-04T06:28:05Z,42.805,6.029,13.3039,4.60120,2470.777,2024-1-04T08:30:36Z
2024-01-04T06:31:08Z,42.805,6.029,13.3040,4.60119,2470.703,2024-1-04T08:33:39Z
2024-01-04T06:34:11Z,42.805,6.029,13.3041,4.60120,2470.763,2024-1-04T08:36:42Z
2024-01-04T06:37:14Z,42.805,6.029,13.3046,4.60118,2470.754,2024-1-04T08:39:45Z
2024-01-04T06:40:17Z,42.805,6.029,13.3038,4.60119,2470.74,2024-1-04T08:42:48Z
2024-01-04T06:43:20Z,42.805,6.029,13.3043,4.60120,2470.754,2024-1-04T08:45:52Z
2024-01-04T06:46:23Z,42.805,6.029,13.3040,4.60117,2470.717,2024-1-04T08:48:55Z
2024-01-04T06:49:26Z,42.805,6.029,13.3041,4.60119,2470.717,2024-1-04T08:51:58Z
2024-01-04T06:52:29Z,42.805,6.029,13.3038,4.60118,2470.763,2024-1-04T08:55:01Z
2024-01-04T06:55:32Z,42.805,6.029,13.3041,4.60116,2470.763,2024-1-04T08:58:04Z
2024-01-04T06:58:35Z,42.805,6.029,13.3039,4.60116,2470.74,2024-1-04T09:01:07Z
2024-01-04T07:01:39Z,42.805,6.029,13.3038,4.60115,2470.74,2024-1-04T09:04:10Z
2024-01-04T07:04:42Z,42.805,6.029,13.3039,4.60116,2470.74,2024-1-04T09:07:13Z
2024-01-04T07:07:45Z,42.805,6.029,13.3037,4.60117,2470.726,2024-1-04T09:10:16Z
2024-01-04T07:10:48Z,42.805,6.029,13.3034,4.60114,2470.717,2024-1-04T09:13:19Z
2024-01-04T07:13:51Z,42.805,6.029,13.3040,4.60117,2470.777,2024-1-04T09:16:22Z
2024-01-04T07:16:54Z,42.805,6.029,13.3037,4.60115,2470.74,2024-1-04T09:19:25Z
2024-01-04T07:19:57Z,42.805,6.029,13.3038,4.60115,2470.74,2024-1-04T09:22:28Z
2024-01-04T07:23:00Z,42.805,6.029,13.3031,4.60114,2470.763,2024-1-04T09:25:32Z
2024-01-04T07:26:03Z,42.805,6.029,13.3036,4.60114,2470.74,2024-1-04T09:28:35Z
2024-01-04T07:29:06Z,42.805,6.029,13.3039,4.60114,2470.763,2024-1-04T09:31:38Z
2024-01-04T07:32:09Z,42.805,6.029,13.3040,4.60114,2470.74,2024-1-04T09:34:41Z
2024-01-04T07:35:12Z,42.805,6.029,13.3039,4.60115,2470.74,2024-1-04T09:37:44Z
2024-01-04T07:38:15Z,42.805,6.029,13.3038,4.60114,2470.74,2024-1-04T09:40:47Z
2024-01-04T07:41:19Z,42.805,6.029,13.3033,4.60113,2470.763,2024-1-04T09:43:50Z
2024-01-04T07:44:22Z,42.805,6.029,13.3037,4.60113,2470.777,2024-1-04T09:46:53Z
2024-01-04T07:47:25Z,42.805,6.029,13.3032,4.60114,2470.754,2024-1-04T09:49:56Z
2024-01-04T07:50:28Z,42.805,6.029,13.3036,4.60113,2470.777,2024-1-04T09:52:59Z
2024-01-04T07:53:31Z,42.805,6.029,13.3033,4.60113,2470.777,2024-1-04T09:56:02Z
2024-01-04T07:56:34Z,42.805,6.029,13.3038,4.60114,2470.777,2024-1-04T09:59:05Z
2024-01-04T07:59:37Z,42.805,6.029,13.3035,4.60115,2470.777,2024-1-04T10:02:09Z
2024-01-04T08:02:40Z,42.805,6.029,13.3034,4.60114,2470.777,2024-1-04T10:05:12Z
2024-01-04T08:05:43Z,42.805,6.029,13.3039,4.60114,2470.763,2024-1-04T10:08:15Z
2024-01-04T08:08:46Z,42.805,6.029,13.3037,4.60114,2470.787,2024-1-04T10:11:18Z
2024-01-04T08:11:49Z,42.805,6.029,13.3038,4.60114,2470.763,2024-1-04T10:14:21Z
2024-01-04T08:14:52Z,42.805,6.029,13.3036,4.60115,2470.787,2024-1-04T10:17:24Z
2024-01-04T08:17:55Z,42.805,6.029,13.3037,4.60114,2470.754,2024-1-04T10:20:27Z
2024-01-04T08:20:59Z,42.805,6.029,13.3038,4.60114,2470.74,2024-1-04T10:23:30Z
2024-01-04T08:24:02Z,42.805,6.029,13.3035,4.60114,2470.763,2024-1-04T10:26:33Z
2024-01-04T08:27:05Z,42.805,6.029,13.3041,4.60114,2470.763,2024-1-04T10:29:36Z
2024-01-04T08:30:08Z,42.805,6.029,13.3038,4.60114,2470.763,2024-1-04T10:32:39Z
2024-01-04T08:33:11Z,42.805,6.029,13.3036,4.60116,2470.763,2024-1-04T10:35:42Z
2024-01-04T08:36:14Z,42.805,6.029,13.3039,4.60115,2470.777,2024-1-04T10:38:45Z
2024-01-04T08:39:17Z,42.805,6.029,13.3037,4.60116,2470.8,2024-1-04T10:41:49Z
2024-01-04T08:42:20Z,42.805,6.029,13.3036,4.60119,2470.8,2024-1-04T10:44:52Z
2024-01-04T08:45:23Z,42.805,6.029,13.3040,4.60115,2470.763,2024-1-04T10:47:55Z
2024-01-04T08:48:26Z,42.805,6.029,13.3041,4.60115,2470.763,2024-1-04T10:50:58Z
2024-01-04T08:51:29Z,42.805,6.029,13.3039,4.60117,2470.763,2024-1-04T10:54:01Z
2024-01-04T08:54:32Z,42.805,6.029,13.3039,4.60115,2470.763,2024-1-04T10:57:04Z
2024-01-04T08:57:36Z,42.805,6.029,13.3036,4.60118,2470.763,2024-1-04T11:00:07Z
2024-01-04T09:00:39Z,42.805,6.029,13.3039,4.60115,2470.763,2024-1-04T11:03:10Z
2024-01-04T09:03:42Z,42.805,6.029,13.3037,4.60116,2470.777,2024-1-04T11:06:13Z
2024-01-04T09:06:45Z,42.805,6.029,13.3041,4.60115,2470.787,2024-1-04T11:09:16Z
2024-01-04T09:09:48Z,42.805,6.029,13.3039,4.60117,2470.763,2024-1-04T11:12:19Z
2024-01-04T09:12:51Z,42.805,6.029,13.3037,4.60117,2470.824,2024-1-04T11:15:22Z
2024-01-04T09:15:54Z,42.805,6.029,13.3039,4.60117,2470.81,2024-1-04T11:18:26Z
2024-01-04T09:18:57Z,42.805,6.029,13.3038,4.60117,2470.787,2024-1-04T11:21:29Z
2024-01-04T09:22:00Z,42.805,6.029,13.3039,4.60117,2470.824,2024-1-04T11:24:32Z
2024-01-04T09:25:03Z,42.805,6.029,13.3040,4.60117,2470.763,2024-1-04T11:27:35Z
2024-01-04T09:28:06Z,42.805,6.029,13.3036,4.60116,2470.787,2024-1-04T11:30:38Z
2024-01-04T09:31:09Z,42.805,6.029,13.3038,4.60117,2470.824,2024-1-04T11:33:41Z
2024-01-04T09:34:13Z,42.805,6.029,13.3040,4.60115,2470.763,2024-1-04T11:36:44Z
2024-01-04T09:37:16Z,42.805,6.029,13.3039,4.60117,2470.787,2024-1-04T11:39:47Z
2024-01-04T09:40:19Z,42.805,6.029,13.3036,4.60116,2470.81,2024-1-04T11:42:50Z
2024-01-04T09:43:22Z,42.805,6.029,13.3039,4.60117,2470.81,2024-1-04T11:45:53Z
2024-01-04T09:46:25Z,42.805,6.029,13.3039,4.60117,2470.833,2024-1-04T11:48:56Z
2024-01-04T09:49:28Z,42.805,6.029,13.3039,4.60118,2470.796,2024-1-04T11:51:59Z
2024-01-04T09:52:31Z,42.805,6.029,13.3036,4.60116,2470.847,2024-1-04T11:55:03Z
2024-01-04T09:55:34Z,42.805,6.029,13.3040,4.60116,2470.824,2024-1-04T11:58:06Z
2024-01-04T09:58:37Z,42.805,6.029,13.3042,4.60117,2470.787,2024-1-04T12:01:09Z
2024-01-04T10:01:40Z,42.805,6.029,13.3038,4.60118,2470.81,2024-1-04T12:04:12Z
2024-01-04T10:04:43Z,42.805,6.029,13.3039,4.60117,2470.787,2024-1-04T12:07:15Z
2024-01-04T10:07:46Z,42.805,6.029,13.3035,4.60117,2470.82,2024-1-04T12:10:18Z
2024-01-04T10:10:49Z,42.805,6.029,13.3040,4.60120,2470.847,2024-1-04T12:13:21Z
2024-01-04T10:13:53Z,42.805,6.029,13.3034,4.60116,2470.833,2024-1-04T12:16:24Z
2024-01-04T10:16:56Z,42.805,6.029,13.3042,4.60117,2470.857,2024-1-04T12:19:27Z
2024-01-04T10:19:59Z,42.805,6.029,13.3040,4.60117,2470.787,2024-1-04T12:22:30Z
2024-01-04T10:23:02Z,42.805,6.029,13.3039,4.60117,2470.81,2024-1-04T12:25:33Z
2024-01-04T10:26:05Z,42.805,6.029,13.3041,4.60117,2470.81,2024-1-04T12:28:36Z
2024-01-04T10:29:08Z,42.805,6.029,13.3039,4.60120,2470.824,2024-1-04T12:31:39Z
2024-01-04T10:32:11Z,42.805,6.029,13.3037,4.60116,2470.857,2024-1-04T12:34:43Z
2024-01-04T10:35:14Z,42.805,6.029,13.3041,4.60118,2470.833,2024-1-04T12:37:46Z
2024-01-04T10:38:17Z,42.805,6.029,13.3038,4.60117,2470.833,2024-1-04T12:40:49Z
2024-01-04T10:41:20Z,42.805,6.029,13.3039,4.60117,2470.847,2024-1-04T12:43:52Z
2024-01-04T10:44:23Z,42.805,6.029,13.3036,4.60119,2470.857,2024-1-04T12:46:55Z
2024-01-04T10:47:26Z,42.805,6.029,13.3039,4.60118,2470.857,2024-1-04T12:49:58Z
2024-01-04T10:50:30Z,42.805,6.029,13.3042,4.60117,2470.833,2024-1-04T12:53:01Z
2024-01-04T10:53:33Z,42.805,6.029,13.3040,4.60117,2470.857,2024-1-04T12:56:04Z
2024-01-04T10:56:36Z,42.805,6.029,13.3039,4.60117,2470.833,2024-1-04T12:59:07Z
2024-01-04T10:59:39Z,42.805,6.029,13.3039,4.60117,2470.833,2024-1-04T13:02:10Z
2024-01-04T11:02:42Z,42.805,6.029,13.3041,4.60117,2470.833,2024-1-04T13:05:13Z
2024-01-04T11:05:45Z,42.805,6.029,13.3039,4.60117,2470.833,2024-1-04T13:08:16Z
2024-01-04T11:08:48Z,42.805,6.029,13.3045,4.60117,2470.847,2024-1-04T13:11:20Z
2024-01-04T11:11:51Z,42.805,6.029,13.3038,4.60117,2470.857,2024-1-04T13:14:23Z
2024-01-04T11:14:54Z,42.805,6.029,13.3042,4.60118,2470.857,2024-1-04T13:17:26Z
2024-01-04T11:17:57Z,42.805,6.029,13.3043,4.60119,2470.824,2024-1-04T13:20:29Z
2024-01-04T11:21:00Z,42.805,6.029,13.3041,4.60120,2470.833,2024-1-04T13:23:32Z
2024-01-04T11:24:03Z,42.805,6.029,13.3040,4.60117,2470.857,2024-1-04T13:26:35Z
2024-01-04T11:27:06Z,42.805,6.029,13.3041,4.60119,2470.843,2024-1-04T13:29:38Z
2024-01-04T11:30:12Z,42.805,6.029,13.3041,4.60118,2470.833,2024-1-04T13:32:43Z
2024-01-04T11:33:15Z,42.805,6.029,13.3037,4.60119,2470.833,2024-1-04T13:35:46Z
2024-01-04T11:36:18Z,42.805,6.029,13.3041,4.60121,2470.833,2024-1-04T13:38:50Z
2024-01-04T11:39:21Z,42.805,6.029,13.3041,4.60119,2470.871,2024-1-04T13:41:53Z
2024-01-04T11:42:24Z,42.805,6.029,13.3041,4.60119,2470.833,2024-1-04T13:44:56Z
2024-01-04T11:45:27Z,42.805,6.029,13.3043,4.60119,2470.857,2024-1-04T13:47:59Z
2024-01-04T11:48:30Z,42.805,6.029,13.3037,4.60119,2470.81,2024-1-04T13:51:02Z
2024-01-04T11:51:33Z,42.805,6.029,13.3040,4.60119,2470.857,2024-1-04T13:54:05Z
2024-01-04T11:54:36Z,42.805,6.029,13.3043,4.60119,2470.871,2024-1-04T13:57:08Z
2024-01-04T11:57:40Z,42.805,6.029,13.3043,4.60119,2470.833,2024-1-04T14:00:11Z
2024-01-04T12:00:43Z,42.805,6.029,13.3039,4.60121,2470.833,2024-1-04T14:03:14Z
2024-01-04T12:03:46Z,42.805,6.029,13.3040,4.60119,2470.833,2024-1-04T14:06:17Z
2024-01-04T12:06:49Z,42.805,6.029,13.3041,4.60119,2470.833,2024-1-04T14:09:20Z
2024-01-04T12:09:52Z,42.805,6.029,13.3039,4.60119,2470.833,2024-1-04T14:12:23Z
2024-01-04T12:12:55Z,42.805,6.029,13.3040,4.60119,2470.857,2024-1-04T14:15:26Z
2024-01-04T12:15:58Z,42.805,6.029,13.3039,4.60119,2470.894,2024-1-04T14:18:30Z
2024-01-04T12:19:01Z,42.805,6.029,13.3040,4.60119,2470.833,2024-1-04T14:21:33Z
2024-01-04T12:22:04Z,42.805,6.029,13.3039,4.60119,2470.81,2024-1-04T14:24:36Z
2024-01-04T12:25:07Z,42.805,6.029,13.3042,4.60122,2470.843,2024-1-04T14:27:39Z
2024-01-04T12:28:10Z,42.805,6.029,13.3041,4.60119,2470.871,2024-1-04T14:30:42Z
2024-01-04T12:31:13Z,42.805,6.029,13.3041,4.60120,2470.833,2024-1-04T14:33:45Z
2024-01-04T12:34:17Z,42.805,6.029,13.3044,4.60119,2470.847,2024-1-04T14:36:48Z
2024-01-04T12:37:20Z,42.805,6.029,13.3039,4.60120,2470.894,2024-1-04T14:39:51Z
2024-01-04T12:40:23Z,42.805,6.029,13.3041,4.60120,2470.857,2024-1-04T14:42:54Z
2024-01-04T12:43:26Z,42.805,6.029,13.3041,4.60120,2470.833,2024-1-04T14:45:57Z
2024-01-04T12:46:29Z,42.805,6.029,13.3040,4.60119,2470.847,2024-1-04T14:49:00Z
2024-01-04T12:49:32Z,42.805,6.029,13.3041,4.60124,2470.894,2024-1-04T14:52:03Z
2024-01-04T12:52:35Z,42.805,6.029,13.3041,4.60119,2470.88,2024-1-04T14:55:07Z
2024-01-04T12:55:38Z,42.805,6.029,13.3042,4.60119,2470.88,2024-1-04T14:58:10Z
2024-01-04T12:58:41Z,42.805,6.029,13.3044,4.60121,2470.833,2024-1-04T15:01:13Z
2024-01-04T13:01:44Z,42.805,6.029,13.3042,4.60120,2470.894,2024-1-04T15:04:16Z
2024-01-04T13:04:47Z,42.805,6.029,13.3042,4.60122,2470.857,2024-1-04T15:07:19Z
2024-01-04T13:07:50Z,42.805,6.029,13.3043,4.60121,2470.88,2024-1-04T15:10:22Z
2024-01-04T13:10:54Z,42.805,6.029,13.3041,4.60120,2470.833,2024-1-04T15:13:25Z
2024-01-04T13:13:57Z,42.805,6.029,13.3039,4.60120,2470.833,2024-1-04T15:16:28Z
2024-01-04T13:17:00Z,42.805,6.029,13.3039,4.60119,2470.857,2024-1-04T15:19:31Z
2024-01-04T13:20:03Z,42.805,6.029,13.3041,4.60125,2470.871,2024-1-04T15:22:34Z
2024-01-04T13:23:06Z,42.805,6.029,13.3041,4.60120,2470.833,2024-1-04T15:25:37Z
2024-01-04T13:26:09Z,42.805,6.029,13.3044,4.60120,2470.833,2024-1-04T15:28:40Z
2024-01-04T13:29:12Z,42.805,6.029,13.3039,4.60119,2470.833,2024-1-04T15:31:44Z
2024-01-04T13:32:15Z,42.805,6.029,13.3043,4.60120,2470.833,2024-1-04T15:34:47Z
2024-01-04T13:35:18Z,42.805,6.029,13.3042,4.60122,2470.81,2024-1-04T15:37:50Z
2024-01-04T13:38:21Z,42.805,6.029,13.3041,4.60122,2470.82,2024-1-04T15:40:53Z
2024-01-04T13:41:25Z,42.805,6.029,13.3044,4.60121,2470.871,2024-1-04T15:43:56Z
2024-01-04T13:44:28Z,42.805,6.029,13.3041,4.60121,2470.871,2024-1-04T15:46:59Z
2024-01-04T13:47:31Z,42.805,6.029,13.3043,4.60122,2470.857,2024-1-04T15:50:02Z
2024-01-04T13:50:34Z,42.805,6.029,13.3043,4.60123,2470.833,2024-1-04T15:53:05Z
2024-01-04T13:53:37Z,42.805,6.029,13.3040,4.60120,2470.847,2024-1-04T15:56:08Z
2024-01-04T13:56:40Z,42.805,6.029,13.3041,4.60120,2470.857,2024-1-04T15:59:11Z
2024-01-04T13:59:43Z,42.805,6.029,13.3039,4.60120,2470.847,2024-1-04T16:02:15Z
2024-01-04T14:02:46Z,42.805,6.029,13.3043,4.60121,2470.81,2024-1-04T16:05:18Z
2024-01-04T14:05:49Z,42.805,6.029,13.3043,4.60121,2470.833,2024-1-04T16:08:21Z
2024-01-04T14:08:52Z,42.805,6.029,13.3041,4.60122,2470.847,2024-1-04T16:11:24Z
2024-01-04T14:11:55Z,42.805,6.029,13.3043,4.60122,2470.833,2024-1-04T16:14:27Z
2024-01-04T14:14:58Z,42.805,6.029,13.3044,4.60122,2470.833,2024-1-04T16:17:30Z
2024-01-04T14:18:01Z,42.805,6.029,13.3046,4.60121,2470.82,2024-1-04T16:20:33Z
2024-01-04T14:21:05Z,42.805,6.029,13.3043,4.60126,2470.847,2024-1-04T16:23:36Z
2024-01-04T14:24:08Z,42.805,6.029,13.3042,4.60122,2470.833,2024-1-04T16:26:39Z
2024-01-04T14:27:11Z,42.805,6.029,13.3041,4.60122,2470.81,2024-1-04T16:29:42Z
2024-01-04T14:30:14Z,42.805,6.029,13.3043,4.60122,2470.81,2024-1-04T16:32:45Z
2024-01-04T14:33:17Z,42.805,6.029,13.3041,4.60121,2470.847,2024-1-04T16:35:48Z
2024-01-04T14:36:20Z,42.805,6.029,13.3042,4.60121,2470.847,2024-1-04T16:38:51Z
2024-01-04T14:39:23Z,42.805,6.029,13.3043,4.60122,2470.833,2024-1-04T16:41:55Z
2024-01-04T14:42:26Z,42.805,6.029,13.3043,4.60125,2470.824,2024-1-04T16:44:58Z
2024-01-04T14:45:29Z,42.805,6.029,13.3045,4.60122,2470.787,2024-1-04T16:48:01Z
2024-01-04T14:48:32Z,42.805,6.029,13.3043,4.60123,2470.833,2024-1-04T16:51:04Z
2024-01-04T14:51:35Z,42.805,6.029,13.3043,4.60122,2470.833,2024-1-04T16:54:07Z
2024-01-04T14:54:39Z,42.805,6.029,13.3041,4.60122,2470.81,2024-1-04T16:57:10Z
2024-01-04T14:57:42Z,42.805,6.029,13.3043,4.60122,2470.833,2024-1-04T17:00:13Z
2024-01-04T15:00:45Z,42.805,6.029,13.3043,4.60124,2470.824,2024-1-04T17:03:16Z
2024-01-04T15:03:48Z,42.805,6.029,13.3043,4.60123,2470.871,2024-1-04T17:06:19Z
2024-01-04T15:06:51Z,42.805,6.029,13.3044,4.60122,2470.81,2024-1-04T17:09:22Z
2024-01-04T15:09:54Z,42.805,6.029,13.3043,4.60122,2470.833,2024-1-04T17:12:25Z